Weather History for Hickory, NC

Change the Weather History Date:

Saturday, January 11, 2014

  Actual Average Record
Temperature  
Mean Temperature 48 °F -  
Max Temperature 55 °F 46 °F 73 °F (1949)
Min Temperature 42 °F 26 °F 4 °F (1982)
Degree Days  
Heating Degree Days 16    
Moisture  
Dew Point 44 °F    
Average Humidity 94    
Maximum Humidity 100    
Minimum Humidity 56    
Precipitation  
Precipitation 1.42 in - - ()
Sea Level Pressure  
Sea Level Pressure 29.81 in    
Wind  
Wind Speed 2 mph (West)    
Max Wind Speed 13 mph    
Max Gust Speed 20 mph    
Visibility 3 miles    
Events Fog , Rain , Thunderstorm    
Averages and records for this station are not official NWS values.
T = Trace of Precipitation, MM = Missing Value Source: NWS Daily Summary

Daily Weather History Graph

Daily Weather History Graph

Search for Another Location

Airport:

Trip Planner

Search our weather history database for the weather conditions in past years. The results will help you decide how hot, cold, wet, or windy it might be!

Date:

Astronomy

Jan. 11, 2014 Rise Set
Actual Time 7:35 AM EST 5:31 PM EST
Civil Twilight 7:07 AM EST 5:59 PM EST
Nautical Twilight 6:36 AM EST 6:31 PM EST
Astronomical Twilight 6:05 AM EST 7:02 PM EST
Moon 2:13 PM EST (1/11) 3:40 AM EST (1/11)
Length of Visible Light 10h 52m
Length of Day
9h 56m
Waxing Gibbous, 83% of the Moon is Illuminated
Jan 11
Waxing Gibbous
Jan 15
Full
Jan 24
Last Quarter
Jan 30
New
Feb 6
First Quarter

Hourly Weather History & Observations

Time (EST) Temp. Windchill Dew Point Humidity Pressure Visibility Wind Dir Wind Speed Gust Speed Precip Events Conditions
12:05 AM 42.8 °F - 42.8 °F 100% 30.06 in 1.2 mi Calm Calm - 0.01 in   Overcast
12:53 AM 43.0 °F - 41.0 °F 93% 30.02 in 1.5 mi Calm Calm - 0.01 in Rain Light Rain
1:09 AM 42.8 °F - 42.8 °F 100% 30.02 in 2.0 mi Calm Calm - 0.01 in Rain Light Rain
1:18 AM 42.8 °F - 41.0 °F 93% 30.02 in 1.2 mi Calm Calm - 0.01 in Rain Light Rain
1:50 AM 42.8 °F - 41.0 °F 93% 30.01 in 0.8 mi Calm Calm - 0.02 in Rain Light Rain
1:53 AM 43.0 °F - 41.0 °F 93% 29.99 in 0.8 mi Calm Calm - 0.02 in Rain Light Rain
2:01 AM 42.8 °F - 41.0 °F 93% 30.00 in 1.0 mi Calm Calm - 0.05 in Rain Heavy Rain
2:25 AM 42.8 °F 39.3 °F 41.0 °F 93% 30.00 in 1.5 mi WNW 5.8 mph - 0.06 in Rain Light Rain
2:49 AM 42.8 °F - 42.8 °F 100% 29.98 in 2.0 mi Calm Calm - 0.06 in Rain Light Rain
2:53 AM 43.0 °F - 42.1 °F 97% 29.96 in 1.5 mi Calm Calm - 0.07 in   Overcast
3:28 AM 42.8 °F - 42.8 °F 100% 29.97 in 2.0 mi Calm Calm - 0.00 in   Overcast
3:37 AM 42.8 °F - 41.0 °F 93% 29.95 in 1.5 mi Calm Calm - 0.00 in Rain Light Rain
3:48 AM 42.8 °F - 41.0 °F 93% 29.94 in 0.5 mi Calm Calm - 0.01 in Fog , Rain Light Rain
3:53 AM 43.0 °F - 41.0 °F 93% 29.92 in 0.5 mi Calm Calm - 0.01 in Fog , Rain Light Rain
4:06 AM 42.8 °F - 41.0 °F 93% 29.94 in 1.0 mi Calm Calm - 0.00 in   Mist
4:17 AM 42.8 °F - 41.0 °F 93% 29.94 in 2.0 mi Calm Calm - 0.01 in Rain Light Rain
4:34 AM 42.8 °F - 41.0 °F 93% 29.92 in 2.0 mi Calm Calm - 0.02 in Rain Light Rain
4:53 AM 43.0 °F - 42.1 °F 97% 29.90 in 2.0 mi Calm Calm - 0.03 in Rain Light Rain
5:05 AM 42.8 °F - 41.0 °F 93% 29.92 in 2.5 mi Calm Calm - 0.00 in Rain Light Rain
5:21 AM 42.8 °F 41.1 °F 41.0 °F 93% 29.91 in 3.0 mi NW 3.5 mph - 0.02 in Rain , Thunderstorm Light Rain
5:34 AM 42.8 °F - 41.0 °F 93% 29.90 in 2.0 mi Calm Calm - 0.05 in Rain , Thunderstorm Thunderstorms and Rain
5:44 AM 42.8 °F - 41.0 °F 93% 29.91 in 2.0 mi Calm Calm - 0.09 in Rain Heavy Rain
5:51 AM 42.8 °F 41.1 °F 41.0 °F 93% 29.89 in 2.0 mi NNW 3.5 mph - 0.13 in Rain Heavy Rain
5:53 AM 43.0 °F - 41.0 °F 93% 29.88 in 2.0 mi Calm Calm - 0.14 in Rain Heavy Rain
6:04 AM 42.8 °F - 41.0 °F 93% 29.89 in 1.5 mi Calm Calm - 0.08 in Rain , Thunderstorm Heavy Rain
6:13 AM 42.8 °F - 42.8 °F 100% 29.88 in 2.0 mi Calm Calm - 0.10 in Rain Light Rain
6:25 AM 42.8 °F - 42.8 °F 100% 29.88 in 2.5 mi Calm Calm - 0.13 in Rain Rain
6:34 AM 42.8 °F - 42.8 °F 100% 29.89 in 1.8 mi Calm Calm - 0.17 in Rain Rain
6:43 AM 42.8 °F - 42.8 °F 100% 29.87 in 2.0 mi Calm Calm - 0.21 in Rain Heavy Rain
6:53 AM 44.1 °F - 42.1 °F 93% 29.83 in 2.5 mi Calm Calm - 0.26 in Rain Heavy Rain
6:56 AM 42.8 °F - 42.8 °F 100% 29.85 in 2.5 mi Calm Calm - 0.01 in Rain Heavy Rain
7:12 AM 42.8 °F - 42.8 °F 100% 29.84 in 2.0 mi Calm Calm - 0.06 in Rain Rain
7:19 AM 42.8 °F - 42.8 °F 100% 29.82 in 1.2 mi Calm Calm - 0.08 in Rain Rain
7:34 AM 42.8 °F 41.1 °F 42.8 °F 100% 29.82 in 1.0 mi Variable 3.5 mph - 0.12 in Rain Rain
7:41 AM 42.8 °F 41.1 °F 42.8 °F 100% 29.82 in 3.0 mi WNW 3.5 mph - 0.12 in Rain Light Rain
7:50 AM 42.8 °F 41.1 °F 42.8 °F 100% 29.82 in 1.5 mi NNW 3.5 mph - 0.12 in Rain Light Rain
7:53 AM 43.0 °F - 42.1 °F 97% 29.81 in 0.8 mi Calm Calm - 0.12 in Rain Light Rain
8:25 AM 42.8 °F - 42.8 °F 100% 29.81 in 1.2 mi Calm Calm - 0.02 in Rain Light Rain
8:35 AM 42.8 °F - 41.0 °F 93% 29.80 in 0.5 mi Calm Calm - 0.09 in Fog , Rain Heavy Rain
8:53 AM 44.1 °F - 43.0 °F 96% 29.78 in 1.0 mi Calm Calm - 0.12 in Rain Light Rain
9:11 AM 42.8 °F 40.1 °F 42.8 °F 100% 29.80 in 1.2 mi NW 4.6 mph - 0.01 in Rain Light Rain
9:23 AM 42.8 °F 40.1 °F 42.8 °F 100% 29.80 in 2.5 mi North 4.6 mph - 0.01 in Rain Light Rain
9:32 AM 42.8 °F 41.1 °F 41.0 °F 93% 29.79 in 1.0 mi North 3.5 mph - 0.02 in Rain Light Rain
9:53 AM 44.1 °F 42.5 °F 42.1 °F 93% 29.75 in 1.2 mi NNE 3.5 mph - 0.02 in Rain Light Rain
10:09 AM 44.6 °F 41.4 °F 42.8 °F 93% 29.77 in 0.5 mi North 5.8 mph - 0.00 in Fog Fog
10:20 AM 44.6 °F 41.4 °F 42.8 °F 93% 29.76 in 0.2 mi North 5.8 mph - 0.00 in Fog Fog
10:53 AM 45.0 °F 41.2 °F 43.0 °F 93% 29.76 in 0.5 mi NW 6.9 mph - 0.18 in Fog , Rain Heavy Rain
11:00 AM 46.4 °F 41.9 °F 46.4 °F 100% 29.76 in 1.0 mi NNW 9.2 mph 18.4 mph 0.04 in Rain Heavy Rain
11:06 AM 46.4 °F 42.4 °F 46.4 °F 100% 29.78 in 1.8 mi West 8.1 mph - 0.07 in Rain Heavy Rain
11:12 AM 46.4 °F - 46.4 °F 100% 29.76 in 2.0 mi Calm Calm - 0.08 in Rain Rain
11:17 AM 46.4 °F - 46.4 °F 100% 29.75 in 3.0 mi Calm Calm - 0.09 in Rain Light Rain
11:53 AM 46.9 °F - 46.0 °F 97% 29.71 in 4.0 mi Calm Calm - 0.14 in Rain Rain
12:16 PM 46.4 °F 45.2 °F 44.6 °F 93% 29.72 in 1.8 mi SSE 3.5 mph - 0.05 in Rain Rain
12:27 PM 46.4 °F 44.3 °F 44.6 °F 93% 29.72 in 3.0 mi SSE 4.6 mph - 0.08 in Rain Rain
12:53 PM 48.0 °F - 46.0 °F 93% 29.70 in 3.0 mi South 6.9 mph - 0.17 in Rain Heavy Rain
1:15 PM 48.2 °F - 48.2 °F 100% 29.69 in 1.8 mi Calm Calm - 0.06 in Rain Rain
1:25 PM 48.2 °F - 48.2 °F 100% 29.68 in 2.0 mi Variable 3.5 mph - 0.07 in Rain Light Rain
1:34 PM 48.2 °F - 46.4 °F 93% 29.67 in 4.0 mi Variable 4.6 mph - 0.08 in Rain Light Rain
1:49 PM 51.8 °F - 48.2 °F 88% 29.66 in 6.0 mi South 11.5 mph 19.6 mph 0.09 in Rain Light Rain
1:53 PM 51.1 °F - 48.9 °F 92% 29.64 in 7.0 mi South 12.7 mph 18.4 mph 0.10 in Rain Light Rain
2:40 PM 51.8 °F - 50.0 °F 94% 29.63 in 10.0 mi South 6.9 mph - 0.03 in Rain Light Rain
2:53 PM 52.0 °F - 50.0 °F 93% 29.62 in 10.0 mi South 9.2 mph - 0.03 in   Overcast
3:53 PM 53.1 °F - 50.0 °F 89% 29.60 in 10.0 mi SW 6.9 mph - N/A   Overcast
4:22 PM 53.6 °F - 51.8 °F 94% 29.61 in 10.0 mi SSW 9.2 mph - N/A   Overcast
4:53 PM 55.0 °F - 52.0 °F 89% 29.58 in 10.0 mi SSW 9.2 mph - N/A   Overcast
5:31 PM 55.4 °F - 51.8 °F 88% 29.60 in 10.0 mi SSW 6.9 mph - N/A   Overcast
5:53 PM 54.0 °F - 51.1 °F 90% 29.57 in 10.0 mi SSW 6.9 mph - N/A   Overcast
6:53 PM 50.0 °F - 48.9 °F 96% 29.60 in 10.0 mi West 3.5 mph - N/A   Overcast
7:08 PM 50.0 °F - 48.2 °F 94% 29.63 in 5.0 mi Calm Calm - N/A   Overcast
7:53 PM 50.0 °F - 48.0 °F 93% 29.63 in 9.0 mi SSW 6.9 mph - N/A   Overcast
8:01 PM 51.8 °F - 48.2 °F 88% 29.66 in 10.0 mi WSW 6.9 mph - N/A   Overcast
8:53 PM 48.9 °F - 46.9 °F 93% 29.66 in 6.0 mi NNW 3.5 mph - N/A   Overcast
9:53 PM 48.9 °F - 41.0 °F 74% 29.68 in 10.0 mi NW 5.8 mph - N/A   Clear
10:53 PM 45.0 °F 42.6 °F 37.0 °F 74% 29.71 in 10.0 mi West 4.6 mph - N/A   Clear
11:53 PM 46.9 °F - 32.0 °F 56% 29.73 in 10.0 mi WNW 9.2 mph 17.3 mph N/A   Clear